User: anonymous   Login
Location: Unspecified
(0.0000°N, 0.0000°E)
Time: 19:18:42
(UTC+00:00)
Language:

S-56A Canister/Altair - Orbit

View from above orbital plane
View from above orbital plane
View from above satellite
View from above satellite

Ground track
Ground track

The orbit data is extracted from the following two-line orbital elements,

1    82U 61004B   19107.64494673 +.00000058 +00000-0 +78082-4 0  9994
2    82 038.8593 338.7435 1175232 183.7132 175.4142 12.26028026755423
Epoch (UTC): 17 April 2019 15:28:43
Eccentricity: 0.1175232
inclination: 38.8593°
perigee height: 633 km
apogee height: 2500 km
right ascension of ascending node: 338.7435°
argument of perigee: 183.7132°
revolutions per day: 12.26028026
mean anomaly at epoch: 175.4142°
orbit number at epoch: 75542

The dashed part of the orbit path shows where the satellite is in the earth's shadow,  

DLR